CZ-6A DEB, 60969

Orbit data source: Space-Track

CZ-6A DEB, 60969 is space debris in LEO originally from a launch on Tue, 06 Aug 2024 UTC launched from the Taiyaun Space Center, China (TSC). Debris objects in space refer to the collection of defunct objects orbiting the Earth. Examples of debris include non-operational satellites, rocket bodies, and fragments generated from explosions, collisions, or faulty payload assembly.

Loading next visibility...
Identifier
60969, 2024-140LU
Orbit
LEO
Country
Flag of CNCN / PRC
Related business
Manufacturer
SAST
Mission
Spacecraft
Bus & Motor
Unknown
Mass
Unknown
Launch date (UTC)
2024-08-06 (2 years ago)
Launch vehicle
Unknown
Launch site
Taiyaun Space Center, China (TSC)
Object type
Payload
Rocket body
Debris
Shape & HBR
Unknown shape, 0.3 m
Radar Cross Section
Medium (>0.1 m² and <1 m²)

Expand to show TLE details & history
Last TLE update: 7 hours ago

TLE from 7 hours ago
0 CZ-6A DEB
1 60969U 24140LU  26118.85512116  .00000203  00000-0  90791-4 0  9993
2 60969  89.0017 280.9021 0051698   7.5598 352.6359 14.18198858 88071
Epoch: 2026-04-28T20:31Z
TLE epoch observation values (Epoch: 2026-04-28T20:31:22.468Z)
Latitude
0.00006°
Longitude
116.23404°
Altitude
797.532 km
Speed
7.474 km/s
True Right ascension
18h 43m 36s
True Declination
0° 00' 00"
Sunlit
Object was in daylight at epoch
Visualization orbit readout
Latitude
Unknown
Longitude
Unknown
Altitude
Unknown
Speed
Unknown
Apparent Right ascension
Unknown
Apparent Declination
Unknown
Sunlit
N/A
Visualization observer readout
Local Sidereal Time
10:59:55
Azimuth
Unknown
Elevation
Unknown
Doppler factor
Unknown
Orbital elements
Apogee altitude
865.661 km
Perigee altitude
791.148 km
Semi-major axis
7,206.541 km
Eccentricity
0.00517
Inclination
89.0017°
RAAN
280.9021°
Arg. of periapsis
7.5598°
True anomaly
352.55948°
Mean anomaly
352.6359°
Eccentric anomaly
352.59774°
Mean motion
3.54775 °/min
Orbital period
101.47 mins
BSTAR
0.000090791
Loading maneuver chart data...
Computing Atmospheric mass density...
Loading historical data...
Loading historical data...
Loading historical data...
Loading historical data...
Loading historical data...
Loading historical data...
Loading historical data...

Documentation

Showing up to 5 results
|